Weather in Alaverdi

Armenia     41˚06′01″N   44˚39′25″E
temp.,
°C
wind,
m/s
gust,
m/s
humid.,
%
clouds,
%
prec.,
mm/h
press.,
hPa
HPBL,
m
30 november, mon
mon3001:00−2˚wsw1295100 0.7 1026107
04:00−2˚sw1195100 1.4 102581
07:00−2˚sw1194100 0.0 102421
10:00+1˚sw0181100 0.0 1024124
13:00+4˚ne217160 0.0 1022526
16:00+2˚ne228446 0.0 1021289
19:00ne119767 0.0 102358
22:00ene119680 0.0 102480
1 december, tue
tue101:00−1˚ene119696 0.0 102454
04:00−1˚ne019575 0.0 102350
07:00−1˚n009255 0.0 102392
10:00+1˚nne007851 0.0 1024260
13:00+4˚nne11670 0.0 1022625
16:00+3˚ne21774 0.0 1021278
19:00sse118974 0.0 102365
22:00ssw118284 0.0 102522
2 december, wed
wed201:00ssw127752 0.0 102521
04:00−1˚sw127726 0.0 102521
07:00−1˚sw12780 0.0 102621
10:00+3˚sw11654 0.0 1025109
13:00+6˚nne115670 0.0 1023550
16:00+4˚ne227583 0.0 1022248
19:00e019384 0.0 102421
22:00−1˚ene119483 0.0 102521
3 december, thu
thu301:00−1˚ne019627 0.0 102624
04:00−1˚ne009541 0.0 102663
07:00e019388 0.0 1027110
10:00+1˚ne018594 0.0 1027263
13:00+2˚ne217870 0.0 1026392
16:00+1˚ne118973 0.0 1025228
19:00ne1192100 0.0 1027119
22:00ne1194100 0.0 102885
4 december, fri
fri401:00ene1195100 0.0 1029123
04:00ene1195100 0.1 1028117
07:00ene1194100 0.1 1028111
10:00e128695 0.1 1029238
13:00+1˚ene228093 0.0 1027442
16:00+1˚ne228796 0.1 1025293
19:00ene119599 0.1 1027156
22:00ene1194100 0.1 1028153